This demonstration page uses our WeatherBlox Daily Observations layout. Learn more.

Hourly Observations for September 7, 2018

Temp ( °F °C ) Dew Point ( °F °C ) Humidity (%) Winds ( mph kmh ) Pressure ( in mb ) Visibility ( mi km ) Precip ( " mm )
12:15 am 00:15 Cloudy with Mist and Fog 64 18 64 18 100 100 E 7 11 30.21 1023 5 8.04672 0 0
12:35 am 00:35 Cloudy with Mist and Fog 64 18 64 18 100 100 E 6 9 30.21 1023 4 6.437376 0 0
12:55 am 00:55 Cloudy with Mist and Fog 64 18 64 18 100 100 E 8 13 30.21 1023 3 4.828032 0 0
1:15 am 01:15 Cloudy with Mist and Fog 64 18 64 18 100 100 E 5 7 30.21 1023 2 3.218688 0 0
1:35 am 01:35 Cloudy with Mist and Fog 64 18 64 18 100 100 ENE 6 9 30.21 1023 1.75 2.816352 0 0
1:55 am 01:55 Cloudy with Mist and Fog 64 17.7 64 17.7 100 100 E 7 11 30.18 1022 2.5 4.02336 0.01 0.254
2:15 am 02:15 Cloudy with Mist and Fog 64 17.6 64 17.6 100 100 E 6 9 30.18 1022 2.5 4.02336 0 0
2:35 am 02:35 Cloudy with Mist and Fog 64 17.6 64 17.6 100 100 ENE 7 11 30.18 1022 3 4.828032 0 0
2:55 am 02:55 Cloudy with Mist and Fog 64 17.6 64 17.6 100 100 ENE 5 7 30.18 1022 4 6.437376 0 0
3:15 am 03:15 Cloudy with Mist and Fog 64 17.6 64 17.6 100 100 ENE 5 7 30.18 1022 5 8.04672 0 0
3:35 am 03:35 Cloudy with Mist and Fog 64 17.6 64 17.6 100 100 NE 5 7 30.18 1022 4 6.437376 0 0
3:55 am 03:55 Cloudy with Mist and Fog 64 17.6 64 17.6 100 100 ENE 8 13 30.18 1022 2 3.218688 0 0
4:15 am 04:15 Cloudy with Mist and Fog 64 17.5 64 17.5 100 100 ENE 6 9 30.18 1022 3 4.828032 0 0
4:35 am 04:35 Cloudy with Mist and Fog 64 17.5 64 17.5 100 100 ENE 6 9 30.18 1022 2.5 4.02336 0 0
4:55 am 04:55 Cloudy with Mist and Fog 64 17.5 64 17.5 100 100 ENE 5 7 30.18 1022 2.5 4.02336 0 0
5:15 am 05:15 Cloudy with Mist and Fog 64 17.5 64 17.5 100 100 ENE 8 13 30.18 1022 3 4.828032 0 0
5:35 am 05:35 Cloudy with Mist and Fog 63 17.4 63 17.4 100 100 ENE 9 15 30.18 1022 2 3.218688 0 0
5:55 am 05:55 Cloudy with Mist and Fog 63 17.2 63 17.2 100 100 E 8 13 30.15 1021 2 3.218688 0.01 0.254
6:15 am 06:15 Cloudy with Light Drizzle 63 17.2 63 17.2 100 100 E 7 11 30.18 1022 4 6.437376 0 0
6:35 am 06:35 Cloudy with Light Rain 63 17.2 63 17.2 100 100 ENE 7 11 30.18 1022 3 4.828032 0.05 1.27
6:55 am 06:55 Cloudy with Light Drizzle 63 17.2 63 17.2 100 100 ENE 5 7 30.18 1022 7 11.265408 0.06 1.524
7:15 am 07:15 Cloudy with Rain 63 17.1 63 17.1 100 100 NE 7 11 30.18 1022 5 8.04672 0 0
7:35 am 07:35 Cloudy with Drizzle 63 17.1 63 17.1 100 100 NE 5 7 30.18 1022 5 8.04672 0.02 0.508
7:55 am 07:55 Cloudy with Light Drizzle 63 17.2 63 17.2 100 100 N 3 6 30.18 1022 7 11.265408 0.02 0.508
8:15 am 08:15 Cloudy 63 17 63 17 100 100 N 7 11 30.18 1022 7 11.265408 0.01 0.254
8:35 am 08:35 Cloudy with Light Drizzle 63 17.1 63 17.1 100 100 N 6 9 30.18 1022 7 11.265408 0.01 0.254
8:55 am 08:55 Cloudy with Light Drizzle 63 17.1 63 17.1 100 100 NE 7 11 30.18 1022 7 11.265408 0.01 0.254
9:15 am 09:15 Cloudy 63 17.2 63 17 99 99 NNE 6 9 30.18 1022 10 16.09344 0 0
9:35 am 09:35 Cloudy 64 17.5 63 17.1 98 98 NNE 9 15 30.18 1022 10 16.09344 0 0
9:55 am 09:55 Cloudy 64 17.6 63 17.2 98 98 NE 8 13 30.18 1022 10 16.09344 0 0
10:15 am 10:15 Cloudy 64 17.5 63 17.2 98 98 NE 7 11 30.18 1022 10 16.09344 0 0
10:35 am 10:35 Cloudy 64 17.6 63 17.3 98 98 NNE 9 15 30.18 1022 10 16.09344 0 0
10:55 am 10:55 Cloudy 64 18 64 17.5 97 97 NE 8 13 30.18 1022 10 16.09344 0 0
11:15 am 11:15 Cloudy 64 18 64 17.5 97 97 NE 9 15 30.18 1022 10 16.09344 0 0
11:35 am 11:35 Cloudy with Mist and Fog 64 18 64 17.5 97 97 NNE 9 15 30.18 1022 4 6.437376 0 0
11:55 am 11:55 Cloudy with Mist and Fog 65 18.5 65 18.3 99 99 ENE 13 20 30.15 1021 5 8.04672 0 0
12:15 pm 12:15 Cloudy 66 19.1 65 18.1 94 94 ENE 12 19 30.15 1021 10 16.09344 0 0
12:35 pm 12:35 Cloudy 66 18.9 64 17.9 94 94 NE 12 19 30.15 1021 10 16.09344 0 0
12:55 pm 12:55 Cloudy 66 19 64 17.6 92 92 ENE 12 19 30.15 1021 10 16.09344 0 0
1:15 pm 13:15 Cloudy 68 20.1 64 17.8 87 87 ENE 9 15 30.15 1021 10 16.09344 0 0
1:35 pm 13:35 Cloudy 69 20.6 63 17 80 80 ENE 10 17 30.15 1021 10 16.09344 0 0
1:55 pm 13:55 Mostly Cloudy 70 20.9 62 16.8 78 78 E 13 20 30.12 1020 10 16.09344 0 0
2:15 pm 14:15 Partly Cloudy 71 21.6 61 16.2 71 71 ENE 13 20 30.09 1019 10 16.09344 0 0
2:35 pm 14:35 Partly Cloudy 72 22.4 62 16.6 70 70 ENE 14 22 30.09 1019 10 16.09344 0 0
2:55 pm 14:55 Mostly Cloudy 73 22.5 61 16.3 68 68 NNE 14 22 30.09 1019 10 16.09344 0 0
3:15 pm 15:15 Mostly Cloudy 72 22.2 60 15.5 66 66 NE 10 17 30.09 1019 10 16.09344 0 0
3:35 pm 15:35 Mostly Cloudy 72 22.4 60 15.8 66 66 NE 10 17 30.09 1019 10 16.09344 0 0
3:55 pm 15:55 Mostly Cloudy 73 22.8 60 15.4 63 63 ENE 12 19 30.06 1018 10 16.09344 0 0
4:15 pm 16:15 Partly Cloudy 73 22.9 59 15.1 62 62 NE 10 17 30.06 1018 10 16.09344 0 0
4:35 pm 16:35 Partly Cloudy 73 22.7 60 15.6 64 64 ENE 10 17 30.06 1018 10 16.09344 0 0
4:55 pm 16:55 Mostly Cloudy 72 22.3 60 15.7 66 66 NE 10 17 30.06 1018 10 16.09344 0 0
5:15 pm 17:15 Cloudy 72 22.2 60 15.8 67 67 ENE 12 19 30.06 1018 10 16.09344 0 0
5:35 pm 17:35 Cloudy 71 21.5 61 16 71 71 ENE 12 19 30.06 1018 10 16.09344 0 0
5:55 pm 17:55 Cloudy 69 20.8 62 16.5 77 77 E 13 20 30.09 1019 10 16.09344 0 0
6:15 pm 18:15 Cloudy 68 20.2 62 16.9 81 81 ENE 13 20 30.09 1019 10 16.09344 0 0
6:35 pm 18:35 Cloudy 68 19.8 63 17.1 85 85 E 14 22 30.09 1019 10 16.09344 0 0
6:55 pm 18:55 Cloudy 67 19.3 63 17.2 88 88 E 12 19 30.12 1020 10 16.09344 0 0
7:15 pm 19:15 Cloudy 66 19 63 17.1 89 89 ENE 9 15 30.12 1020 10 16.09344 0 0
7:35 pm 19:35 Cloudy 66 18.7 63 17 90 90 E 8 13 30.12 1020 10 16.09344 0 0
7:55 pm 19:55 Cloudy 65 18.3 63 17 92 92 ENE 9 15 30.12 1020 10 16.09344 0 0
8:15 pm 20:15 Cloudy 64 18 62 16.6 92 92 E 10 17 30.12 1020 10 16.09344 0 0
8:35 pm 20:35 Cloudy 64 17.9 62 16.6 92 92 E 8 13 30.12 1020 10 16.09344 0 0
8:55 pm 20:55 Cloudy 64 17.6 62 16.7 95 95 ENE 8 13 30.15 1021 10 16.09344 0 0
9:15 pm 21:15 Cloudy 64 17.5 62 16.7 95 95 E 9 15 30.15 1021 10 16.09344 0 0
9:35 pm 21:35 Cloudy 64 17.5 62 16.8 96 96 NE 7 11 30.15 1021 10 16.09344 0 0
9:55 pm 21:55 Cloudy 64 17.5 62 16.8 96 96 E 8 13 30.15 1021 10 16.09344 0 0
10:15 pm 22:15 Cloudy 63 17.2 62 16.5 96 96 E 7 11 30.15 1021 10 16.09344 0 0
10:35 pm 22:35 Cloudy with Mist and Fog 62 16.7 62 16.7 100 100 ENE 9 15 30.15 1021 2.5 4.02336 0 0
10:55 pm 22:55 Cloudy with Mist and Fog 62 16.6 62 16.6 100 100 ENE 12 19 30.15 1021 2.5 4.02336 0 0
11:15 pm 23:15 Cloudy with Mist and Fog 62 16.5 62 16.5 100 100 ENE 8 13 30.15 1021 4 6.437376 0 0
11:35 pm 23:35 Cloudy with Mist and Fog 62 16.4 62 16.4 100 100 ENE 8 13 30.15 1021 4 6.437376 0 0
11:55 pm 23:55 Cloudy with Mist and Fog 61 16.3 61 16.3 100 100 ENE 7 11 30.15 1021 3 4.828032 0 0

Powered by AerisWeather